Lone Rock, WI

6:35 PM CST on February 26, 2017 (GMT -0600)
Tri-County Regional

Weather History for KLNR - April, 2012

Change the Weather History Date:

Thursday, April 26, 2012

  Actual Average Record
Temperature  
Mean Temperature 47 °F -  
Max Temperature 59 °F 61 °F 79 °F (2001)
Min Temperature 37 °F 38 °F 27 °F (2006)
Degree Days  
Heating Degree Days 18    
Moisture  
Dew Point 34 °F    
Average Humidity 61    
Maximum Humidity 93    
Minimum Humidity 23    
Precipitation  
Precipitation 0.00 in - - ()
Sea Level Pressure  
Sea Level Pressure 29.94 in    
Wind  
Wind Speed 6 mph (North)    
Max Wind Speed 18 mph    
Max Gust Speed 25 mph    
Visibility 8 miles    
Events      
Averages and records for this station are not official NWS values.
T = Trace of Precipitation, MM = Missing Value Source: NWS Daily Summary

Daily Weather History Graph

Daily Weather History Graph

Search for Another Location

Airport or City:

Trip Planner

Search our weather history database for the weather conditions in past years. The results will help you decide how hot, cold, wet, or windy it might be!

Date:

Astronomy

Apr. 26, 2012 Rise Set
Actual Time 6:00 AM CDT 7:57 PM CDT
Civil Twilight 5:29 AM CDT 8:27 PM CDT
Nautical Twilight 4:52 AM CDT 9:05 PM CDT
Astronomical Twilight 4:11 AM CDT 9:46 PM CDT
Moon 9:36 AM CDT (4/26) 12:05 AM CDT (4/26)
Length of Visible Light 14h 57m
Length of Day
13h 56m
Waxing Crescent, 24% of the Moon is Illuminated
Apr 26
Waxing Crescent
Apr 29
First Quarter
May 5
Full
May 12
Last Quarter
May 20
New

Hourly Weather History & Observations

Time (CDT) Temp. Windchill Dew Point Humidity Pressure Visibility Wind Dir Wind Speed Gust Speed Precip Events Conditions
12:56 AM 46.0 °F - 44.1 °F 93% 29.71 in 4.0 mi Calm Calm - N/A   Clear
1:56 AM 45.0 °F - 43.0 °F 93% 29.71 in 3.0 mi Calm Calm - N/A   Clear
2:05 AM 46.4 °F - 42.8 °F 87% 29.72 in 2.5 mi Calm Calm - N/A   Clear
2:23 AM 44.6 °F - 42.8 °F 93% 29.73 in 2.5 mi Calm Calm - N/A   Clear
2:34 AM 46.4 °F - 42.8 °F 87% 29.73 in 3.0 mi Calm Calm - N/A   Clear
2:56 AM 48.0 °F - 44.1 °F 86% 29.73 in 4.0 mi Variable 4.6 mph - N/A   Clear
3:44 AM 44.6 °F 42.2 °F 42.8 °F 93% 29.77 in 2.5 mi SW 4.6 mph - N/A   Partly Cloudy
3:56 AM 45.0 °F 41.8 °F 42.1 °F 90% 29.77 in 2.5 mi WNW 5.8 mph - N/A   Clear
4:56 AM 46.9 °F - 44.1 °F 90% 29.79 in 5.0 mi NNW 5.8 mph - N/A   Clear
5:56 AM 48.0 °F - 43.0 °F 83% 29.81 in 7.0 mi NNW 8.1 mph - N/A   Clear
6:56 AM 48.0 °F - 42.1 °F 80% 29.85 in 9.0 mi North 11.5 mph 18.4 mph N/A   Partly Cloudy
7:20 AM 48.2 °F - 41.0 °F 76% 29.88 in 10.0 mi North 12.7 mph 21.9 mph N/A   Mostly Cloudy
7:56 AM 48.9 °F - 41.0 °F 74% 29.90 in 10.0 mi NNW 15.0 mph 20.7 mph N/A   Overcast
8:53 AM 48.2 °F - 37.4 °F 66% 29.94 in 10.0 mi NNW 15.0 mph 25.3 mph N/A   Overcast
9:51 AM 51.8 °F - 39.2 °F 62% 29.96 in 10.0 mi NNW 13.8 mph 20.7 mph N/A   Mostly Cloudy
9:56 AM 51.1 °F - 37.9 °F 61% 29.96 in 10.0 mi NNW 12.7 mph 20.7 mph N/A   Mostly Cloudy
10:56 AM 54.0 °F - 37.0 °F 53% 29.98 in 10.0 mi North 11.5 mph 23.0 mph N/A   Overcast
11:56 AM 55.9 °F - 35.1 °F 45% 29.99 in 10.0 mi NNE 13.8 mph 20.7 mph N/A   Partly Cloudy
12:56 PM 57.0 °F - 30.9 °F 37% 30.01 in 10.0 mi NNW 18.4 mph 25.3 mph N/A   Scattered Clouds
1:56 PM 57.9 °F - 28.9 °F 33% 30.04 in 10.0 mi North 12.7 mph 25.3 mph N/A   Partly Cloudy
2:56 PM 57.9 °F - 28.9 °F 33% 30.06 in 10.0 mi North 11.5 mph 20.7 mph N/A   Clear
3:56 PM 57.0 °F - 24.1 °F 28% 30.06 in 10.0 mi NNE 13.8 mph 20.7 mph N/A   Clear
4:56 PM 55.9 °F - 21.9 °F 27% 30.06 in 10.0 mi Variable 5.8 mph - N/A   Clear
5:29 PM 57.2 °F - 19.4 °F 23% 30.08 in 10.0 mi NNE 13.8 mph - N/A   Clear
5:56 PM 55.9 °F - 19.9 °F 25% 30.08 in 10.0 mi NE 5.8 mph - N/A   Clear
6:56 PM 54.0 °F - 19.0 °F 25% 30.10 in 10.0 mi North 8.1 mph - N/A   Clear
7:56 PM 50.0 °F - 21.0 °F 32% 30.12 in 10.0 mi North 6.9 mph - N/A   Clear
8:56 PM 46.9 °F - 24.1 °F 41% 30.13 in 10.0 mi NNE 8.1 mph - N/A   Clear
9:56 PM 46.0 °F 41.4 °F 24.1 °F 42% 30.14 in 10.0 mi NNE 9.2 mph - N/A   Clear
10:56 PM 37.9 °F - 27.0 °F 65% 30.16 in 10.0 mi Calm Calm - N/A   Clear
11:56 PM 37.0 °F - 28.0 °F 70% 30.17 in 10.0 mi Calm Calm - N/A   Clear